| time (UTC) | temp F | wind direction | speed knots | gust knots | rain 1hr in | rain 24hr in | rain mn in | humidity % | barometer mb |
| 20260906183516 | 74 | 135 | 4.3 | 7.8 | 0.00 | 0.00 | 0.00 | 84 | 1018.2 |
| 20260906182515 | 74 | 158 | 3.5 | 6.1 | 0.00 | 0.00 | 0.00 | 84 | 1018.2 |
| 20260906181516 | 74 | 180 | 4.3 | 6.1 | 0.00 | 0.00 | 0.00 | 84 | 1018.4 |
| 20260906180515 | 74 | 180 | 2.6 | 6.1 | 0.00 | 0.00 | 0.00 | 85 | 1018.5 |
| 20260906175516 | 74 | 180 | 4.3 | 7.8 | 0.00 | 0.00 | 0.00 | 84 | 1018.7 |
| 20260906174516 | 75 | 158 | 5.2 | 7.8 | 0.00 | 0.00 | 0.00 | 84 | 1018.7 |
| 20260906173535 | 75 | 158 | 4.3 | 6.1 | 0.00 | 0.00 | 0.00 | 85 | 1018.7 |
| 20260906172515 | 75 | 158 | 4.3 | 7.0 | 0.00 | 0.00 | 0.00 | 84 | 1018.6 |
| 20260906171536 | 74 | 158 | 5.2 | 8.7 | 0.00 | 0.00 | 0.00 | 84 | 1018.6 |
| 20260906170515 | 75 | 113 | 5.2 | 10.4 | 0.00 | 0.00 | 0.00 | 83 | 1018.6 |
| 20260906165515 | 76 | 135 | 5.2 | 9.6 | 0.00 | 0.00 | 0.00 | 84 | 1018.8 |
| 20260906164515 | 75 | 135 | 7.0 | 10.4 | 0.00 | 0.00 | 0.00 | 84 | 1018.7 |
| 20260906163515 | 75 | 135 | 5.2 | 11.3 | 0.00 | 0.00 | 0.00 | 85 | 1018.9 |
| 20260906162515 | 74 | 135 | 4.3 | 7.0 | 0.00 | 0.00 | 0.00 | 86 | 1019.1 |
| 20260906161515 | 73 | 158 | 5.2 | 9.6 | 0.00 | 0.00 | 0.00 | 86 | 1019.2 |
| 20260906160515 | 73 | 158 | 4.3 | 7.0 | 0.00 | 0.00 | 0.00 | 87 | 1019.1 |
| 20260906155515 | 72 | 135 | 3.5 | 6.1 | 0.00 | 0.00 | 0.00 | 88 | 1019.1 |
| 20260906154515 | 72 | 135 | 4.3 | 7.0 | 0.00 | 0.00 | 0.00 | 88 | 1019.1 |
| 20260906153515 | 72 | 158 | 3.5 | 6.1 | 0.00 | 0.00 | 0.00 | 89 | 1018.8 |
| 20260906152515 | 72 | 135 | 4.3 | 6.1 | 0.00 | 0.00 | 0.00 | 88 | 1018.7 |
| 20260906151515 | 72 | 158 | 4.3 | 7.0 | 0.00 | 0.00 | 0.00 | 88 | 1018.8 |
| 20260906150515 | 72 | 158 | 4.3 | 7.0 | 0.00 | 0.00 | 0.00 | 89 | 1019.0 |
| 20260906145515 | 71 | 158 | 5.2 | 9.6 | 0.00 | 0.00 | 0.00 | 89 | 1019.0 |
| 20260906144515 | 71 | 158 | 3.5 | 6.1 | 0.00 | 0.00 | 0.00 | 89 | 1018.9 |
| 20260906143515 | 71 | 158 | 3.5 | 6.1 | 0.00 | 0.00 | 0.00 | 90 | 1018.7 |
| 20260906142515 | 71 | 158 | 3.5 | 7.8 | 0.00 | 0.00 | 0.00 | 90 | 1018.7 |
| 20260906141515 | 71 | 180 | 4.3 | 7.8 | 0.00 | 0.00 | 0.00 | 89 | 1018.7 |
| 20260906140535 | 71 | 158 | 5.2 | 8.7 | 0.00 | 0.00 | 0.00 | 89 | 1018.6 |
| 20260906135517 | 71 | 135 | 5.2 | 7.0 | 0.00 | 0.00 | 0.00 | 90 | 1018.7 |
| 20260906134517 | 71 | 135 | 5.2 | 7.8 | 0.00 | 0.00 | 0.00 | 90 | 1018.5 |
| 20260906133517 | 70 | 158 | 4.3 | 7.8 | 0.00 | 0.00 | 0.00 | 91 | 1018.3 |
| 20260906132517 | 70 | 180 | 3.5 | 7.0 | 0.00 | 0.00 | 0.00 | 91 | 1018.4 |
| 20260906131517 | 70 | 158 | 2.6 | 6.1 | 0.00 | 0.00 | 0.00 | 92 | 1018.5 |
| 20260906130517 | 69 | 0 | 1.7 | 4.3 | 0.00 | 0.00 | 0.00 | 92 | 1018.4 |
| 20260906125517 | 69 | 158 | 2.6 | 5.2 | 0.00 | 0.00 | 0.00 | 93 | 1018.3 |
| 20260906124517 | 68 | 135 | 2.6 | 6.1 | 0.00 | 0.00 | 0.00 | 93 | 1018.2 |
| 20260906123517 | 68 | 0 | 1.7 | 2.6 | 0.00 | 0.00 | 0.00 | 93 | 1018.2 |
| 20260906122517 | 67 | 135 | 1.7 | 2.6 | 0.00 | 0.00 | 0.00 | 93 | 1018.1 |
| 20260906121517 | 67 | 158 | 1.7 | 4.3 | 0.00 | 0.00 | 0.00 | 93 | 1018.0 |
| 20260906120517 | 67 | 135 | 0.9 | 2.6 | 0.00 | 0.00 | 0.00 | 94 | 1018.1 |
| 20260906115517 | 66 | 135 | 0.9 | 1.7 | 0.00 | 0.00 | 0.00 | 93 | 1017.9 |
| 20260906114517 | 66 | 135 | 0.9 | 0.9 | 0.00 | 0.00 | 0.00 | 93 | 1018.1 |
| 20260906113537 | 66 | 0.0 | 1.7 | 0.00 | 0.00 | 0.00 | 93 | 1018.2 | |
| 20260906112517 | 66 | 0.0 | 0.9 | 0.00 | 0.00 | 0.00 | 93 | 1018.1 | |
| 20260906111517 | 65 | 0.0 | 1.7 | 0.00 | 0.00 | 0.00 | 93 | 1017.9 | |
| 20260906110537 | 66 | 0.0 | 0.0 | 0.00 | 0.00 | 0.00 | 93 | 1018.0 | |
| 20260906105517 | 66 | 0.0 | 1.7 | 0.00 | 0.00 | 0.00 | 93 | 1017.8 | |
| 20260906104517 | 66 | 113 | 0.9 | 1.7 | 0.00 | 0.00 | 0.00 | 93 | 1017.8 |
| 20260906103517 | 66 | 113 | 0.9 | 1.7 | 0.00 | 0.00 | 0.00 | 93 | 1017.9 |
| 20260906102517 | 66 | 0.0 | 0.9 | 0.00 | 0.00 | 0.00 | 93 | 1017.8 | |
| 20260906101517 | 66 | 0.0 | 0.9 | 0.00 | 0.00 | 0.00 | 92 | 1017.9 | |
| 20260906100517 | 66 | 0.0 | 1.7 | 0.00 | 0.00 | 0.00 | 92 | 1017.7 | |
| 20260906095517 | 66 | 0.0 | 1.7 | 0.00 | 0.00 | 0.00 | 93 | 1017.7 | |
| 20260906094517 | 66 | 0.0 | 0.9 | 0.00 | 0.00 | 0.00 | 92 | 1017.4 | |
| 20260906093516 | 66 | 113 | 0.9 | 0.9 | 0.00 | 0.00 | 0.00 | 92 | 1017.3 |
| 20260906092517 | 66 | 0.0 | 0.9 | 0.00 | 0.00 | 0.00 | 92 | 1017.2 | |
| 20260906091517 | 66 | 113 | 0.9 | 1.7 | 0.00 | 0.00 | 0.00 | 92 | 1017.0 |
| 20260906090517 | 67 | 113 | 0.9 | 0.9 | 0.00 | 0.00 | 0.00 | 92 | 1017.1 |
| 20260906085517 | 66 | 135 | 0.9 | 1.7 | 0.00 | 0.00 | 0.00 | 91 | 1017.1 |
| 20260906084517 | 67 | 0.0 | 0.9 | 0.00 | 0.00 | 0.00 | 90 | 1017.2 | |
| 20260906083516 | 68 | 0.0 | 1.7 | 0.00 | 0.00 | 0.00 | 91 | 1017.2 | |
| 20260906082516 | 68 | 0.0 | 1.7 | 0.00 | 0.00 | 0.00 | 91 | 1017.0 | |
| 20260906081517 | 68 | 0.0 | 0.9 | 0.00 | 0.00 | 0.00 | 91 | 1016.8 | |
| 20260906080517 | 69 | 0.0 | 1.7 | 0.00 | 0.00 | 0.00 | 91 | 1016.8 | |
| 20260906075516 | 69 | 0 | 0.9 | 1.7 | 0.00 | 0.00 | 0.00 | 91 | 1016.8 |
| 20260906074517 | 69 | 113 | 1.7 | 3.5 | 0.00 | 0.00 | 0.00 | 91 | 1016.7 |
| 20260906073516 | 70 | 135 | 2.6 | 7.8 | 0.00 | 0.00 | 0.00 | 91 | 1016.7 |
| 20260906072537 | 70 | 135 | 2.6 | 4.3 | 0.00 | 0.00 | 0.00 | 91 | 1016.8 |
| 20260906071517 | 70 | 135 | 2.6 | 4.3 | 0.00 | 0.00 | 0.00 | 91 | 1016.9 |
| 20260906070517 | 70 | 135 | 1.7 | 4.3 | 0.00 | 0.00 | 0.00 | 91 | 1017.0 |
| 20260906065516 | 69 | 0 | 1.7 | 3.5 | 0.00 | 0.00 | 0.00 | 91 | 1017.2 |
| 20260906064516 | 70 | 0 | 0.9 | 2.6 | 0.00 | 0.00 | 0.00 | 91 | 1017.2 |
| 20260906063516 | 70 | 0 | 1.7 | 3.5 | 0.00 | 0.00 | 0.00 | 91 | 1017.3 |
| 20260906062556 | 70 | 0 | 1.7 | 3.5 | 0.00 | 0.00 | 0.00 | 91 | 1017.3 |
| 20260906061516 | 70 | 0 | 1.7 | 2.6 | 0.00 | 0.00 | 0.00 | 91 | 1017.1 |
| 20260906060516 | 70 | 0 | 2.6 | 3.5 | 0.00 | 0.00 | 0.00 | 91 | 1017.1 |
| 20260906055516 | 70 | 0 | 1.7 | 4.3 | 0.00 | 0.00 | 0.00 | 91 | 1017.2 |
| 20260906054516 | 71 | 135 | 2.6 | 3.5 | 0.00 | 0.00 | 0.00 | 91 | 1017.3 |
| 20260906053516 | 71 | 135 | 2.6 | 5.2 | 0.00 | 0.00 | 0.00 | 91 | 1017.4 |
| 20260906052516 | 71 | 113 | 1.7 | 3.5 | 0.00 | 0.00 | 0.00 | 90 | 1017.4 |
| 20260906051516 | 71 | 113 | 3.5 | 7.0 | 0.00 | 0.00 | 0.00 | 91 | 1017.4 |
| 20260906050516 | 72 | 113 | 2.6 | 4.3 | 0.00 | 0.00 | 0.00 | 90 | 1017.3 |
| 20260906045517 | 72 | 113 | 2.6 | 4.3 | 0.00 | 0.00 | 0.00 | 91 | 1017.3 |
| 20260906044517 | 72 | 113 | 2.6 | 6.1 | 0.00 | 0.00 | 0.00 | 91 | 1017.3 |
| 20260906043517 | 72 | 113 | 3.5 | 6.1 | 0.00 | 0.00 | 0.00 | 91 | 1017.2 |
| 20260906042537 | 72 | 113 | 2.6 | 7.0 | 0.00 | 0.00 | 0.00 | 91 | 1017.3 |
| 20260906041517 | 72 | 113 | 2.6 | 5.2 | 0.00 | 0.00 | 0.00 | 91 | 1017.3 |
| 20260906040517 | 72 | 113 | 3.5 | 6.1 | 0.00 | 0.00 | 0.00 | 91 | 1017.3 |
| 20260906035517 | 72 | 113 | 2.6 | 5.2 | 0.00 | 0.00 | 0.00 | 91 | 1017.3 |
| 20260906034537 | 72 | 90 | 2.6 | 4.3 | 0.00 | 0.00 | 0.00 | 91 | 1017.3 |
| 20260906033517 | 72 | 90 | 2.6 | 4.3 | 0.00 | 0.00 | 0.00 | 91 | 1017.3 |
| 20260906032517 | 72 | 113 | 0.9 | 1.7 | 0.00 | 0.00 | 0.00 | 91 | 1017.2 |
| 20260906031517 | 72 | 113 | 0.9 | 1.7 | 0.00 | 0.00 | 0.00 | 91 | 1017.3 |
| 20260906030517 | 72 | 113 | 0.9 | 1.7 | 0.00 | 0.00 | 0.00 | 91 | 1017.4 |
| 20260906025517 | 72 | 113 | 0.9 | 1.7 | 0.00 | 0.00 | 0.00 | 90 | 1017.4 |
| 20260906024517 | 73 | 0 | 0.9 | 0.9 | 0.00 | 0.00 | 0.00 | 90 | 1017.4 |
| 20260906023537 | 73 | 0.0 | 0.0 | 0.00 | 0.00 | 0.00 | 90 | 1017.4 | |
| 20260906022557 | 73 | 0.0 | 1.7 | 0.00 | 0.00 | 0.00 | 90 | 1017.3 | |
| 20260906021517 | 73 | 0.0 | 0.0 | 0.00 | 0.00 | 0.00 | 90 | 1017.1 | |
| 20260906020517 | 73 | 0.0 | 0.9 | 0.00 | 0.00 | 0.00 | 90 | 1016.8 | |
| 20260906015517 | 73 | 90 | 0.9 | 2.6 | 0.00 | 0.00 | 0.00 | 89 | 1016.6 |
| 20260906014516 | 74 | 0.0 | 1.7 | 0.00 | 0.00 | 0.00 | 89 | 1016.4 | |
| 20260906013536 | 74 | 0.0 | 1.7 | 0.00 | 0.00 | 0.00 | 89 | 1016.1 | |
| 20260906012536 | 74 | 0.0 | 1.7 | 0.00 | 0.00 | 0.00 | 88 | 1016.0 | |
| 20260906011516 | 75 | 0.0 | 0.9 | 0.00 | 0.00 | 0.00 | 88 | 1016.0 | |
| 20260906010516 | 75 | 0.0 | 1.7 | 0.00 | 0.00 | 0.00 | 87 | 1015.7 | |
| 20260906005516 | 76 | 180 | 0.9 | 1.7 | 0.00 | 0.00 | 0.00 | 86 | 1015.7 |
| 20260906004516 | 76 | 180 | 1.7 | 2.6 | 0.00 | 0.00 | 0.00 | 85 | 1015.7 |
| 20260906003516 | 77 | 158 | 0.9 | 1.7 | 0.00 | 0.00 | 0.00 | 84 | 1015.7 |
| 20260906002516 | 78 | 135 | 1.7 | 2.6 | 0.00 | 0.00 | 0.00 | 84 | 1015.6 |
| 20260906001517 | 78 | 135 | 1.7 | 3.5 | 0.00 | 0.00 | 0.00 | 83 | 1015.5 |
| 20260906000516 | 78 | 135 | 0.9 | 3.5 | 0.00 | 0.00 | 0.00 | 83 | 1015.6 |
| 20260905235516 | 78 | 135 | 1.7 | 3.5 | 0.00 | 0.00 | 0.00 | 82 | 1015.6 |
| 20260905234517 | 79 | 135 | 2.6 | 6.1 | 0.00 | 0.00 | 0.00 | 81 | 1015.6 |
| 20260905233516 | 79 | 135 | 3.5 | 6.1 | 0.00 | 0.00 | 0.00 | 80 | 1015.6 |
| 20260905232516 | 80 | 158 | 3.5 | 5.2 | 0.00 | 0.00 | 0.00 | 80 | 1015.5 |
| 20260905231516 | 81 | 135 | 4.3 | 7.8 | 0.00 | 0.00 | 0.00 | 79 | 1015.4 |
| 20260905230516 | 81 | 135 | 3.5 | 6.1 | 0.00 | 0.00 | 0.00 | 80 | 1015.3 |
| 20260905225556 | 81 | 135 | 3.5 | 6.1 | 0.00 | 0.00 | 0.00 | 80 | 1015.2 |
| 20260905224516 | 81 | 158 | 3.5 | 5.2 | 0.00 | 0.00 | 0.00 | 80 | 1015.2 |
| 20260905223516 | 80 | 158 | 2.6 | 5.2 | 0.00 | 0.00 | 0.00 | 80 | 1014.8 |
| 20260905222516 | 81 | 113 | 3.5 | 7.0 | 0.00 | 0.00 | 0.00 | 79 | 1014.6 |
| 20260905221516 | 81 | 90 | 5.2 | 9.6 | 0.00 | 0.00 | 0.00 | 77 | 1014.5 |
| 20260905220516 | 83 | 113 | 4.3 | 7.0 | 0.00 | 0.00 | 0.00 | 76 | 1014.6 |
| 20260905215536 | 83 | 90 | 5.2 | 7.8 | 0.00 | 0.00 | 0.00 | 76 | 1014.6 |
| 20260905214536 | 83 | 90 | 4.3 | 7.8 | 0.00 | 0.00 | 0.00 | 78 | 1014.9 |
| 20260905213516 | 83 | 113 | 6.1 | 11.3 | 0.00 | 0.00 | 0.00 | 76 | 1014.9 |
| 20260905212536 | 83 | 113 | 7.0 | 10.4 | 0.00 | 0.00 | 0.00 | 76 | 1015.0 |
| 20260905211516 | 82 | 90 | 7.0 | 11.3 | 0.00 | 0.00 | 0.00 | 77 | 1015.0 |
| 20260905210536 | 81 | 90 | 7.0 | 11.3 | 0.00 | 0.00 | 0.00 | 79 | 1014.9 |
| 20260905205516 | 81 | 113 | 7.0 | 12.2 | 0.00 | 0.00 | 0.00 | 81 | 1015.0 |
| 20260905204536 | 80 | 113 | 6.1 | 10.4 | 0.00 | 0.00 | 0.00 | 81 | 1015.2 |
| 20260905203516 | 80 | 90 | 6.1 | 9.6 | 0.00 | 0.00 | 0.00 | 82 | 1015.3 |
| 20260905202516 | 81 | 90 | 6.1 | 10.4 | 0.00 | 0.00 | 0.00 | 81 | 1015.3 |
| 20260905201516 | 81 | 90 | 7.0 | 10.4 | 0.00 | 0.00 | 0.00 | 81 | 1015.2 |
| 20260905200516 | 80 | 90 | 6.1 | 8.7 | 0.00 | 0.00 | 0.00 | 83 | 1015.3 |
| 20260905195516 | 79 | 90 | 6.1 | 9.6 | 0.00 | 0.00 | 0.00 | 84 | 1015.6 |
| 20260905194556 | 78 | 68 | 6.1 | 7.8 | 0.00 | 0.00 | 0.00 | 85 | 1015.5 |
| 20260905193516 | 78 | 90 | 5.2 | 7.8 | 0.00 | 0.00 | 0.00 | 84 | 1015.5 |
| 20260905192516 | 79 | 90 | 5.2 | 7.8 | 0.00 | 0.00 | 0.00 | 84 | 1015.5 |
| 20260905191536 | 78 | 90 | 6.1 | 8.7 | 0.00 | 0.00 | 0.00 | 84 | 1015.6 |
| 20260905190516 | 78 | 90 | 5.2 | 9.6 | 0.00 | 0.00 | 0.00 | 85 | 1015.8 |
| 20260905185536 | 78 | 113 | 4.3 | 7.0 | 0.00 | 0.00 | 0.00 | 86 | 1016.2 |
| 20260905184516 | 78 | 113 | 4.3 | 9.6 | 0.00 | 0.00 | 0.00 | 85 | 1016.2 |